User: anonymous   Login
Location: Prairie State College
(41.5244°N, 87.6382°W)
Time: 04:45:45
(UTC-05:00)
Language:

Cosmos 1943 - Orbit

View from above orbital plane
View from above orbital plane
View from above satellite
View from above satellite

Ground track
Ground track

The orbit data is extracted from the following two-line orbital elements,

1 19119U 88039A   14304.49590350 -.00000081  00000-0 -17146-4 0  2836
2 19119 071.0028 316.9687 0009243 071.7229 084.9739 14.14957721366339
Epoch (UTC): 31 October 2014 11:54:06
Eccentricity: 0.0009243
inclination: 71.0028°
perigee height: 836 km
apogee height: 849 km
right ascension of ascending node: 316.9687°
argument of perigee: 71.7229°
revolutions per day: 14.14957721
mean anomaly at epoch: 84.9739°
orbit number at epoch: 36633

The dashed part of the orbit path shows where the satellite is in the earth's shadow,  

DLR